SCP
0 0 0 0 0 0 0 0 0 0 0 0 0 0 0 0 0 0 0 0 0 0 0 0 0 0 0 0 0 0 0 0 0 0 0 0 0 0 0 0 0 0 0
0 0 0 0 0 0 0 0 0 0 0 0 0 0 0 0 0 0 0 0 0 0 0 0 0 0 0 0 0 0 0 0 0 0 0 0 0 0 0 0 0 0 0
0 0 0 0 0 0 0 0 0 0 0 0 0 0 0 0 0 0 0 0 0 0 0 0 0 0 0 0 0 0 0 0 0 0 0 0 0 0 0 0 0 0 0
0 0 0 0 0 0 0 0 0 0 0 0 0 0 0 0 0 0 0 0 0 0 0 0 0 0 0 0 0 0 0 0 0 0 0 0 0 0 0 0 0 0 0
0 0 0 0 0 0 0 0 0 0 0 0 0 0 0 0 0 0 0 0 0 0 0 0 0 0 0 0 0 0 0 0 0 0 0 0 0 0 0 0 0 0 0
0 0 0 0 0 0 0 0 0 0 0 0 0 0 0 0 0 0 0 0 0 0 0 0 0 0 0 0 0 0 0 0 0 0 0 0 0 0 0 0 0 0 0
0 0 0 0 0 0 0 0 0 0 0 0 0 0 0 0 0 0 0 0 0 0 0 0 0 0 0 0 0 0 0 0 0 0 0 0 0 0 0 0 0 0 0
0 0 0 0 0 0 0 0 0 0 0 0 0 0 0 0 0 0 0 0 0 0 0 0 0 0 0 0 0 0 0 0 0 0 0 0 0 0 0 0 0 0 0
0 0 0 0 0 0 0 0 0 0 0 0 0 0 0 0 0 0 0 0 0 0 0 0 0 0 0 0 0 0 0 0 0 0 0 0 0 0 0 0 0 0 0
0 0 0 0 0 0 0 0 0 0 0 0 0 0 0 0 0 0 0 0 0 0 0 0 0 0 0 0 0 0 0 0 0 0 0 0 0 0 0 0 0 0 0
0 0 0 0 0 0 0 0 0 0 0 0 0 0 0 0 0 0 0 0 0 0 0 0 0 0 0 0 0 0 0 0 0 0 0 0 0 0 0 0 0 0 0
0 0 0 0 0 0 0 0 0 0 0 0 0 0 0 0 0 0 0 0 0 0 0 0 0 0 0 0 0 0 0 0 0 0 0 0 0 0 0 0 0 0 0
0 0 0 0 0 0 0 0 0 0 0 0 0 0 0 0 0 0 0 0 0 0 0 0 0 0 0 0 0 0 0 0 0 0 0 0 0 0 0 0 0 0 0
0 0 0 0 0 0 0 0 0 0 0 0 0 0 0 0 0 0 0 0 0 0 0 0 0 0 0 0 0 0 0 0 0 0 0 0 0 0 0 0 0 0 0
0 0 0 0 0 0 0 0 0 0 0 0 0 0 0 0 0 0 0 0 0 0 0 0 0 0 0 0 0 0 0 0 0 0 0 0 0 0 0 0 0 0 0
0 0 0 0 0 0 0 0 0 0 0 0 0 0 0 0 0 0 0 0 0 0 0 0 0 0 0 0 0 0 0 0 0 0 0 0 0 0 0 0 0 0 0
0 0 0 0 0 0 0 0 0 0 0 0 0 0 0 0 0 0 0 0 0 0 0 0 0 0 0 0 0 0 0 0 0 0 0 0 0 0 0 0 0 0 0
0 0 0 0 0 0 0 0 0 0 0 0 0 0 0 0 0 0 0 0 0 0 0 0 0 0 0 0 0 0 0 0 0 0 0 0 0 0 0 0 0 0 0
0 0 0 0 0 0 0 0 0 0 0 0 0 0 0 0 0 0 0 0 0 0 0 0 0 0 0 0 0 0 0 0 0 0 0 0 0 0 0 0 0 0 0
0 0 0 0 0 0 0 0 0 0 0 0 0 0 0 0 0 0 0 0 0 0 0 0 0 0 0 0 0 0 0 0 0 0 0 0 0 0 0 0 0 0 0
0 0 0 0 0 0 0 0 0 0 0 0 0 0 0 0 0 0 0 0 0 0 0 0 0 0 0 0 0 0 0 0 0 0 0 0 0 0 0 0 0 0 0
0 0 0 0 0 0 0 0 0 0 0 0 0 0 0 0 0 0 0 0 0 0 0 0 0 0 0 0 0 0 0 0 0 0 0 0 0 0 0 0 0 0 0
0 0 0 0 0 0 0 0 0 0 0 0 0 0 0 0 0 0 0 0 0 0 0 0 0 0 0 0 0 0 0 0 0 0 0 0 0 0 0 0 0 0 0
0 0 0 0 0 0 0 0 0 0 0 0 0 0 0 0 0 0 0 0 0 0 0 0 0 0 0 0 0 0 0 0 0 0 0 0 0 0 0 0 0 0 0
0 0 0 0 0 0 0 0 0 0 0 0 0 0 0 0 0 0 0 0 0 0 0 0 0 0 0 0 0 0 0 0 0 0 0 0 0 0 0 0 0 0 0
0 0 0 0 0 0 0 0 0 0 0 0 0 0 0 0 0 0 0 0 0 0 0 0 0 0 0 0 0 0 0 0 0 0 0 0 0 0 0 0 0 0 0
Wind_Speed
2 1 0 1 1 1 2 2 3 3 4 4 5 5 6 6 5 5 6 5 6 6 7 8 11 11 9 8 8 8 8 8 11 9 8 9 10 10 10 9 9 10 10
1 1 1 2 2 2 3 3 4 4 5 5 5 6 7 7 6 7 8 6 6 8 9 10 12 11 12 10 9 9 9 9 9 12 9 8 10 10 11 11 10 9 8
1 1 2 2 2 3 4 4 5 5 5 6 6 6 7 8 7 7 6 6 7 8 10 12 14 14 13 11 11 10 9 9 7 9 10 8 8 9 10 11 10 7 6
1 2 2 3 3 4 5 5 6 5 6 7 6 7 7 7 7 6 5 6 8 9 11 12 14 14 14 13 12 12 10 8 8 9 10 10 10 9 8 8 7 4 3
2 2 3 4 4 5 6 6 6 6 7 6 6 6 5 4 4 3 4 7 9 12 13 14 13 17 19 15 11 9 9 8 8 9 10 10 10 8 7 5 6 3 2
3 3 4 4 5 6 6 6 7 6 6 5 4 5 4 3 5 8 10 9 11 13 14 14 14 15 16 18 19 18 16 12 11 10 10 11 12 10 7 6 4 2 2
3 4 5 5 6 7 7 7 6 5 4 4 4 4 4 5 8 11 16 13 12 13 13 12 11 12 15 12 14 18 17 20 20 15 14 14 13 10 7 6 4 3 2
3 5 5 5 6 6 6 6 5 4 4 4 5 5 5 6 11 13 18 12 12 12 12 13 13 13 12 13 12 12 14 14 15 12 12 13 12 9 6 4 3 4 3
3 5 5 5 4 5 6 6 6 5 6 6 5 6 6 8 12 15 17 10 10 13 12 12 12 12 15 16 13 12 14 12 13 13 11 7 6 4 3 5 5 3 2
4 4 4 4 5 7 7 6 5 5 6 6 6 6 7 8 12 15 17 8 10 11 11 11 14 13 15 16 12 10 12 11 9 7 3 7 8 9 9 5 3 2 2
3 4 6 6 7 7 6 5 6 6 6 7 7 7 8 9 11 14 17 10 9 10 9 9 8 14 17 17 14 9 10 10 5 2 5 7 8 8 8 7 5 3 3
5 6 7 6 6 6 6 6 6 6 7 7 8 9 7 8 10 13 18 18 16 11 9 8 9 16 18 16 10 8 7 3 2 4 6 7 7 7 7 8 9 8 8
7 7 6 7 6 5 5 5 5 6 6 7 8 9 9 8 9 14 16 18 20 12 9 16 18 18 15 9 8 7 4 5 5 7 8 7 7 6 6 7 8 9 11
7 6 5 5 5 5 4 4 4 5 6 7 8 8 8 8 8 9 10 10 13 12 10 13 16 14 10 8 6 6 6 7 7 8 8 7 6 6 6 6 6 6 8
7 5 5 5 5 5 4 3 4 4 5 7 7 7 8 8 11 17 12 10 10 11 12 7 6 7 7 6 6 7 7 7 8 7 7 7 6 6 7 6 7 7 8
6 5 4 4 4 4 5 5 6 6 11 11 10 9 8 10 16 17 18 19 18 18 10 7 7 7 7 7 6 7 7 7 7 7 7 6 6 6 7 7 7 7 8
7 6 5 5 4 4 4 5 6 8 9 10 12 14 14 16 16 16 17 17 15 14 6 7 7 7 7 6 6 7 7 7 7 7 7 7 7 7 7 7 7 7 8
8 8 6 4 4 4 4 5 5 7 8 8 9 13 16 17 16 16 16 12 9 9 7 7 7 8 7 7 6 6 6 6 7 7 7 7 6 7 7 7 7 8 8
7 5 4 4 4 4 5 5 6 7 7 7 7 10 14 14 13 14 12 8 8 8 8 7 7 8 7 7 6 6 6 6 7 7 6 6 6 7 7 7 7 10 9
5 8 6 4 4 5 5 6 6 7 7 7 8 9 10 9 8 10 9 9 9 9 9 8 8 8 8 8 7 6 6 6 6 6 6 6 5 6 7 8 7 8 8
5 5 7 4 4 5 5 6 6 7 7 7 8 11 14 8 9 10 9 9 9 9 9 9 8 8 8 7 7 7 7 6 6 6 6 5 5 5 5 6 7 8 8
4 4 3 3 4 5 6 6 7 7 8 9 8 9 13 9 8 9 9 9 9 9 9 8 8 7 7 7 6 6 6 6 6 6 6 5 5 4 5 6 6 7 8
4 4 3 3 4 6 6 7 7 7 7 8 8 8 9 9 9 9 10 10 9 9 9 9 8 8 7 6 6 6 6 5 5 5 5 5 4 4 5 6 8 7 8
3 3 3 3 4 5 6 6 7 7 7 8 8 8 8 8 9 10 10 10 9 9 9 9 9 12 13 9 6 6 6 5 4 5 6 5 5 5 5 6 7 8 8
3 2 3 3 4 4 5 6 6 7 7 7 7 8 8 8 9 9 10 9 10 10 12 11 9 10 13 13 10 7 7 8 7 5 5 6 7 7 7 7 7 7 8
3 3 3 3 4 4 4 5 6 7 7 7 7 7 8 8 8 9 9 10 10 10 11 10 13 13 14 11 11 9 7 7 7 7 5 5 7 6 6 6 8 7 8
Wind_Direction
140 147 178 281 322 334 322 307 298 293 296 293 289 283 274 266 255 250 257 266 278 292 302 307 307 304 295 288 282 273 265 261 272 280 277 283 281 279 285 285 283 281 277
187 232 274 306 322 323 310 299 293 291 290 285 285 281 277 271 257 249 260 270 282 293 301 305 305 303 294 289 282 277 273 263 268 282 287 289 284 283 284 285 285 281 270
232 265 293 303 304 298 293 290 290 288 289 288 283 278 279 277 267 257 259 275 285 291 297 301 300 298 292 287 283 280 275 272 268 282 291 289 284 282 285 284 279 272 262
239 255 273 280 280 277 277 278 279 279 279 281 280 279 284 287 283 278 279 289 295 297 299 297 294 290 285 283 281 277 276 277 282 285 287 287 284 283 277 278 278 254 237
238 254 266 272 272 271 274 276 277 275 275 277 285 294 305 304 305 312 309 308 307 307 304 299 293 289 285 284 282 281 283 283 283 281 281 282 282 280 273 264 267 242 202
243 259 267 272 275 276 278 280 282 285 288 291 300 315 331 343 356 346 335 318 312 309 305 301 296 292 293 294 294 293 289 287 285 279 278 276 277 274 267 258 248 205 204
247 270 278 282 285 286 290 292 293 296 300 324 354 7 2 345 347 339 330 324 311 304 298 297 295 294 297 289 288 291 290 285 279 275 273 270 270 266 256 246 220 197 166
282 291 296 297 297 304 317 325 336 358 17 21 23 18 0 338 335 328 326 321 305 299 295 291 289 290 288 287 287 285 283 282 278 273 265 264 263 259 242 224 159 120 100
310 313 319 325 334 358 20 29 33 39 34 26 16 5 348 327 322 320 327 315 306 305 300 294 291 286 287 292 294 290 290 290 290 285 279 272 259 235 161 133 136 130 115
331 338 358 24 51 61 61 53 41 41 29 14 3 347 333 320 315 319 326 314 308 308 306 301 298 294 294 299 299 292 290 296 310 322 8 53 65 71 74 78 98 100 98
1 43 56 66 76 76 68 55 44 35 21 6 351 336 326 318 318 323 328 324 312 307 305 306 302 302 304 303 298 284 278 287 306 14 65 64 62 61 59 58 57 66 83
66 71 69 68 75 74 67 52 38 23 11 358 347 341 334 329 327 328 327 325 324 315 310 309 308 310 311 308 304 295 296 300 83 77 71 65 65 65 65 68 71 72 71
80 76 71 69 61 56 53 40 23 10 3 354 351 347 341 338 333 330 328 326 329 329 319 321 322 320 320 319 337 5 45 75 80 77 72 69 70 75 78 78 77 76 72
85 77 67 61 47 33 28 19 7 357 354 352 349 342 336 335 337 337 332 328 330 332 328 322 322 325 336 348 8 44 61 70 79 81 80 78 74 70 67 67 74 77 81
82 75 63 52 41 25 15 356 347 330 336 337 334 332 334 338 333 330 334 335 335 334 330 327 336 345 360 16 41 60 67 72 76 81 83 81 76 72 67 62 71 76 79
79 64 55 49 41 32 16 0 349 350 340 339 334 335 334 330 330 335 339 338 335 335 339 347 353 357 6 22 46 63 68 72 77 81 82 78 74 73 74 71 71 76 81
79 70 59 52 43 27 12 4 356 349 345 347 344 345 347 342 342 342 342 337 336 342 352 360 2 5 13 27 48 65 73 76 80 84 83 79 74 72 74 77 77 78 79
78 73 68 51 35 17 1 354 355 359 356 354 350 350 349 345 343 346 345 344 353 0 4 6 8 10 18 32 50 65 75 78 82 86 85 80 73 73 76 79 80 83 83
83 74 61 45 25 7 356 356 2 4 360 354 355 357 351 345 345 353 356 2 359 2 5 9 12 15 21 31 45 59 69 77 84 89 88 82 73 71 74 78 82 79 83
85 84 71 44 19 8 4 5 7 7 3 1 4 4 354 352 2 3 5 5 5 7 8 10 13 18 23 29 39 52 63 71 80 86 89 86 78 70 71 77 84 86 85
86 75 64 43 21 11 8 8 7 10 9 6 6 1 360 2 4 5 7 7 7 8 8 8 10 14 21 25 33 45 55 64 72 80 86 90 86 76 73 79 88 93 95
93 77 55 36 20 19 16 13 13 13 11 10 4 2 2 8 7 7 7 6 6 7 7 8 9 11 14 19 24 36 48 60 70 76 81 82 81 79 84 90 92 95 97
95 80 58 37 28 23 24 21 18 15 11 9 6 5 5 7 7 7 5 3 4 6 7 9 11 12 11 14 20 28 40 51 66 79 82 81 80 83 94 100 103 104 100
91 77 56 38 33 32 29 25 20 16 14 10 8 6 4 4 4 4 3 359 2 6 8 9 11 13 16 17 17 22 27 36 56 72 79 81 84 91 96 100 101 103 98
88 72 51 38 37 37 35 30 24 19 16 13 9 6 4 4 4 3 1 360 1 6 9 9 8 9 12 18 20 19 25 42 53 63 73 77 82 85 90 97 102 105 105
87 72 57 51 49 45 41 35 29 23 19 14 10 8 7 6 5 3 2 2 1 3 6 6 6 14 15 15 13 15 28 45 55 58 68 79 81 82 85 92 105 109 113